Flag for Germany Weather past 2 weeks in Lemgo, North Rhine-Westphalia, Germany

Now
67 °F

Sunny.


Feels Like: 67 °F
Forecast: 51 / 71 °F
Wind: 1 mph from South

Location: Bad Lippspringe

Current Time: Oct 2, 2014 at 1:20:55 PM

Latest Report: Oct 2, 2014 at 1:00 PM


Visibility: 3 mi

Pressure: 30.39 "Hg

Humidity: 65%

Dew point: 55 °F

Location of LemgoLocation

Historic Weather in Lemgo — Graph

°F

Lemgo temperature yesterday

Maximum temperature yesterday: 68 °F (at 4:00 PM)
Minimum temperature yesterday: 50 °F (at 6:00 AM)
Average temperature yesterday: 57 °F

Past Weeks' High & Low Weather Summary

 TemperatureHumidityPressure
High75 °F (Sep 17, 3:00 PM)99% (Sep 21, 8:00 AM)30.41 "Hg (Sep 21, 8:00 AM)
Low45 °F (Sep 24, 7:00 AM)53% (Sep 27, 5:00 PM)29.83 "Hg (Sep 24, 7:00 PM)
Average58 °F84%30.11 "Hg
* Reported Sep 17 12:00 Noon — Oct 2 12:00 Noon, Lemgo, Weather by CustomWeather, © 2014

Note: Actual official high and low records may vary slightly from our data, if they occured in-between our weather recording intervals... More about our weather records

Advertising

Lemgo weather history for previous 24 hours

 ConditionsComfort  
Time TempWeatherWind HumidityBarometerVisibility
12:00 PM
Oct 2
65 °FOvercast.1 mph68%30.40 "Hg2 mi
11:00 AM62 °FFog.1 mph85%30.41 "Hg2 mi
10:00 AM59 °FFog.1 mph91%30.41 "Hg2 mi
9:00 AM56 °FFog.1 mph95%30.40 "Hg1 mi
8:00 AM53 °FFog.1 mph98%30.40 "Hg1 mi
7:00 AM52 °FFog.No wind98%30.38 "Hg1 mi
6:00 AM51 °FOvercast.1 mph99%30.39 "Hg1 mi
5:00 AM49 °FPassing clouds.1 mph98%30.39 "Hg1 mi
4:00 AM50 °FClear.1 mph99%30.39 "Hg1 mi
3:00 AM49 °FClear.1 mph99%30.39 "Hg0 mi
2:00 AM50 °FPassing clouds.1 mph98%30.39 "Hg1 mi
1:00 AM50 °FPassing clouds.1 mph99%30.38 "Hg1 mi
12:00 AM51 °FClear.1 mph97%30.38 "Hg1 mi
11:00 PM
Oct 1
52 °FFog.1 mph97%30.37 "Hg1 mi
10:00 PM52 °FFog.1 mph96%30.37 "Hg2 mi
9:00 PM53 °FFog.1 mph95%30.36 "Hg2 mi
8:00 PM57 °FFog.1 mph91%30.34 "Hg4 mi
7:00 PM62 °FSunny.1 mph74%30.32 "Hg5 mi
6:00 PM66 °FSunny.5 mph64%30.31 "Hg7 mi
5:00 PM66 °FPartly sunny.3 mph63%30.30 "Hg9 mi
4:00 PM68 °FSunny.3 mph63%30.29 "Hg7 mi
3:00 PM67 °FPassing clouds.3 mph62%30.30 "Hg7 mi
2:00 PM65 °FScattered clouds.3 mph71%30.32 "Hg3 mi
1:00 PM64 °FPartly sunny.1 mph75%30.32 "Hg2 mi
Weather by CustomWeather, © 2014

See weather overviewHow to use our weather pages